1513033200.0,19647,5.0,72012.8,-2.43,-3.51,-3.75,0,*5E
1513033201.27,19648,5.0,71996.5,-2.41,-3.55,-3.71,0,*53
1513033202.53,19649,5.0,72024.8,-2.41,-3.55,-3.67,0,*55
1513033203.8,19650,5.0,72034.3,-2.41,-3.55,-3.59,0,*50
1513033205.07,19651,5.0,72020.8,-2.41,-3.47,-3.67,0,*5F
1513033206.33,19652,5.0,72002.3,-2.41,-3.55,-3.71,0,*58
1513033207.58,19653,5.0,71974.8,-2.39,-3.55,-3.59,0,*5C
1513033208.83,19654,5.0,72012.8,-2.41,-3.35,-3.55,0,*5E
1513033210.09,19655,5.0,71962.3,-2.41,-3.43,-3.55,0,*5E
1513033211.36,19656,5.0,72000.5,-2.41,-3.47,-3.59,0,*55
1513033212.61,19657,5.0,72010.8,-2.39,-3.47,-3.67,0,*56
1513033213.88,19658,5.0,72016.3,-2.41,-3.43,-3.59,0,*5F
1513033215.16,19659,5.0,72030.5,-2.41,-3.43,-3.59,0,*5E
1513033216.43,19660,5.0,72024.8,-2.41,-3.47,-3.59,0,*50
1513033217.69,19661,5.0,71998.3,-2.41,-3.55,-3.67,0,*5F
1513033218.96,19662,5.0,72006.3,-2.41,-3.47,-3.67,0,*5F
1513033220.21,19663,5.0,72024.5,-2.39,-3.55,-3.67,0,*52
1513033221.45,19664,5.0,72018.5,-2.39,-3.47,-3.67,0,*56
1513033222.72,19665,5.0,72000.5,-2.41,-3.55,-3.67,0,*5B
1513033223.96,19666,5.0,71998.8,-2.39,-3.67,-3.71,0,*51
1513033225.21,19667,5.0,72004.3,-2.41,-3.59,-3.79,0,*5A
1513033226.46,19668,5.0,71986.8,-2.39,-3.67,-3.71,0,*5F
1513033227.71,19669,5.0,72000.8,-2.41,-3.67,-3.79,0,*59
1513033228.97,19670,5.0,71998.8,-2.41,-3.55,-3.71,0,*58
1513033230.24,19671,5.0,71996.3,-2.41,-3.59,-3.71,0,*55
1513033231.49,19672,5.0,72008.8,-2.39,-3.55,-3.71,0,*55
1513033232.73,19673,5.0,71996.8,-2.41,-3.67,-3.79,0,*52
1513033233.96,19674,5.0,71988.8,-2.39,-3.59,-3.79,0,*57
1513033235.21,19675,5.0,71992.0,-2.41,-3.67,-3.79,0,*54
1513033236.47,19676,5.0,71994.0,-2.41,-3.59,-3.79,0,*5A
1513033237.72,19677,5.0,71982.8,-2.41,-3.59,-3.79,0,*5B
1513033238.98,19678,5.0,71988.3,-2.41,-3.67,-3.71,0,*51
1513033240.24,19679,5.0,71980.8,-2.41,-3.59,-3.79,0,*55
1513033241.48,19680,5.0,71982.3,-2.41,-3.67,-3.79,0,*5E
1513033242.75,19681,5.0,71978.0,-2.41,-3.55,-3.71,0,*56
1513033244.01,19682,5.0,72018.8,-2.41,-3.47,-3.67,0,*51
1513033245.28,19683,5.0,72018.5,-2.41,-3.55,-3.67,0,*53
1513033246.55,19684,5.0,71970.8,-2.41,-3.55,-3.59,0,*59
1513033247.79,19685,5.0,71990.0,-2.41,-3.35,-3.47,0,*51
1513033249.02,19686,5.0,71998.3,-2.39,-3.35,-3.47,0,*5D
1513033250.22,19687,5.0,71948.5,-2.39,-3.23,-3.35,0,*5E
1513033251.43,19688,5.0,71878.5,-2.41,-3.23,-3.31,0,*5A
1513033252.66,19689,5.0,71876.3,-2.39,-3.31,-3.43,0,*52
1513033253.88,19690,5.0,71890.3,-2.39,-3.31,-3.55,0,*5D
1513033255.15,19691,5.0,71936.8,-2.41,-3.43,-3.55,0,*56
1513033256.37,19692,5.0,71960.5,-2.39,-3.31,-3.55,0,*5F
1513033257.63,19693,5.0,71996.0,-2.41,-3.43,-3.47,0,*57
1513033258.89,19694,5.0,72004.0,-2.39,-3.47,-3.59,0,*54
1513033260.14,19695,5.0,71988.5,-2.39,-3.55,-3.59,0,*56
1513033261.38,19696,5.0,71996.5,-2.39,-3.43,-3.67,0,*5F
1513033262.63,19697,5.0,72010.0,-2.39,-3.55,-3.67,0,*59
1513033263.87,19698,5.0,71994.3,-2.39,-3.55,-3.67,0,*56
1513033265.12,19699,5.0,72012.5,-2.39,-3.55,-3.67,0,*57
1513033266.36,19700,5.0,72040.3,-2.39,-3.55,-3.67,0,*56
1513033267.59,19701,5.0,71998.8,-2.37,-3.27,-3.39,0,*57
1513033268.81,19702,5.0,71986.5,-2.39,-3.31,-3.47,0,*54
1513033270.06,19703,5.0,71964.0,-2.37,-3.31,-3.51,0,*5C
1513033271.31,19704,5.0,71950.3,-2.39,-3.47,-3.67,0,*51
1513033272.56,19705,5.0,71940.8,-2.39,-3.55,-3.67,0,*53
1513033273.8,19706,5.0,71936.0,-2.39,-3.47,-3.67,0,*53
1513033275.05,19707,5.0,71946.5,-2.39,-3.47,-3.67,0,*52
1513033276.3,19708,5.0,71938.8,-2.39,-3.47,-3.59,0,*50
1513033277.55,19709,5.0,71954.5,-2.39,-3.47,-3.67,0,*5C
1513033278.8,19710,5.0,71958.5,-2.39,-3.55,-3.67,0,*57
1513033280.04,19711,5.0,71956.8,-2.39,-3.55,-3.67,0,*56
1513033281.29,19712,5.0,71960.3,-2.39,-3.55,-3.59,0,*58
1513033282.54,19713,5.0,71956.8,-2.39,-3.47,-3.67,0,*57
1513033283.79,19714,5.0,71946.3,-2.39,-3.47,-3.59,0,*5D
1513033285.04,19715,5.0,71944.5,-2.39,-3.55,-3.59,0,*5F
1513033286.29,19716,5.0,71956.8,-2.39,-3.47,-3.67,0,*52
1513033287.54,19717,5.0,71952.8,-2.39,-3.47,-3.67,0,*53
1513033288.79,19718,5.0,71958.5,-2.39,-3.47,-3.67,0,*5C
1513033290.05,19719,5.0,71944.5,-2.37,-3.43,-3.55,0,*56
1513033291.3,19720,5.0,71942.0,-2.37,-3.31,-3.51,0,*5D
1513033292.55,19721,5.0,71956.0,-2.37,-3.27,-3.51,0,*5B
1513033293.76,19722,5.0,71958.8,-2.39,-3.31,-3.35,0,*53
1513033294.98,19723,5.0,71952.0,-2.37,-3.19,-3.31,0,*52
1513033296.21,19724,5.0,71966.8,-2.37,-3.27,-3.31,0,*58
1513033297.4,19725,5.0,71972.8,-2.35,-3.23,-3.39,0,*57
1513033298.65,19726,5.0,71952.0,-2.37,-3.19,-3.43,0,*52
1513033299.85,19727,5.0,71954.5,-2.35,-3.35,-3.39,0,*52
1513033301.1,19728,5.0,71962.0,-2.37,-3.31,-3.51,0,*55
1513033302.32,19729,5.0,71972.5,-2.35,-3.39,-3.51,0,*5E
1513033303.57,19730,5.0,71976.0,-2.37,-3.31,-3.51,0,*5C
1513033304.82,19731,5.0,72006.3,-2.37,-3.39,-3.55,0,*51
1513033306.04,19732,5.0,71966.0,-2.35,-3.39,-3.59,0,*5C
1513033307.29,19733,5.0,71954.5,-2.35,-3.47,-3.51,0,*5C
1513033308.56,19734,5.0,71914.8,-2.37,-3.51,-3.63,0,*5F
1513033309.83,19735,5.0,71896.0,-2.37,-3.51,-3.63,0,*5E
1513033311.1,19736,5.0,71954.8,-2.37,-3.51,-3.63,0,*5D
1513033312.33,19737,5.0,71950.5,-2.35,-3.35,-3.51,0,*5D
1513033313.58,19738,5.0,71944.3,-2.37,-3.31,-3.51,0,*54
1513033314.82,19739,5.0,71914.3,-2.37,-3.31,-3.43,0,*56
1513033316.07,19740,5.0,71960.5,-2.37,-3.39,-3.51,0,*53
1513033317.32,19741,5.0,71962.8,-2.37,-3.31,-3.55,0,*5E
1513033318.54,19742,5.0,71998.0,-2.35,-3.35,-3.47,0,*58
1513033319.81,19743,5.0,71998.8,-2.37,-3.43,-3.63,0,*5C
1513033321.06,19744,5.0,71962.0,-2.35,-3.47,-3.51,0,*5C
1513033322.33,19745,5.0,72018.3,-2.33,-3.47,-3.59,0,*53
1513033323.6,19746,5.0,72042.3,-2.37,-3.43,-3.55,0,*5C
1513033324.85,19747,5.0,72038.3,-2.33,-3.39,-3.59,0,*58
1513033326.08,19748,5.0,72004.0,-2.35,-3.39,-3.59,0,*51
1513033327.34,19749,5.0,72020.3,-2.37,-3.43,-3.55,0,*53
1513033328.59,19750,5.0,72038.5,-2.37,-3.31,-3.55,0,*5E
1513033329.82,19751,5.0,72016.5,-2.35,-3.39,-3.59,0,*59
1513033331.04,19752,5.0,72026.3,-2.35,-3.39,-3.59,0,*5A
1513033332.32,19753,5.0,72032.0,-2.37,-3.47,-3.59,0,*50
1513033333.57,19754,5.0,71970.5,-2.37,-3.39,-3.55,0,*52
1513033334.79,19755,5.0,71996.3,-2.35,-3.39,-3.59,0,*5D
1513033336.06,19756,5.0,72014.5,-2.37,-3.51,-3.63,0,*5B
1513033337.33,19757,5.0,71986.3,-2.33,-3.47,-3.51,0,*58
1513033338.59,19758,5.0,71986.5,-2.35,-3.47,-3.59,0,*59
1513033339.85,19759,5.0,71966.3,-2.37,-3.43,-3.63,0,*57
1513033341.12,19760,5.0,71974.5,-2.37,-3.51,-3.55,0,*5B
1513033342.35,19761,5.0,71980.0,-2.35,-3.39,-3.51,0,*52
1513033343.61,19762,5.0,71950.3,-2.37,-3.43,-3.55,0,*5A
1513033344.86,19763,5.0,71938.8,-2.35,-3.51,-3.59,0,*56
1513033346.11,19764,5.0,71968.3,-2.35,-3.47,-3.59,0,*56
1513033347.36,19765,5.0,71974.5,-2.35,-3.47,-3.63,0,*5E
1513033348.63,19766,5.0,71972.3,-2.37,-3.43,-3.63,0,*5B
1513033349.9,19767,5.0,71972.5,-2.37,-3.43,-3.63,0,*5A
1513033351.15,19768,5.0,71982.8,-2.37,-3.51,-3.75,0,*51
1513033352.4,19769,5.0,71950.8,-2.35,-3.47,-3.63,0,*52
1513033353.67,19770,5.0,71974.5,-2.37,-3.43,-3.67,0,*58
1513033354.89,19771,5.0,71928.8,-2.35,-3.39,-3.59,0,*5B
1513033356.12,19772,5.0,71970.8,-2.35,-3.39,-3.59,0,*58
1513033357.36,19773,5.0,71990.3,-2.35,-3.51,-3.63,0,*5E
1513033358.61,19774,5.0,72006.5,-2.37,-3.55,-3.75,0,*58
1513033359.87,19775,5.0,72034.3,-2.37,-3.63,-3.79,0,*50
1513033361.12,19776,5.0,72040.3,-2.37,-3.55,-3.75,0,*5A
1513033362.37,19777,5.0,72028.0,-2.37,-3.63,-3.79,0,*52
1513033363.62,19778,5.0,72028.3,-2.35,-3.51,-3.63,0,*55
1513033364.86,19779,5.0,72034.0,-2.35,-3.51,-3.63,0,*54
1513033366.12,19780,5.0,72036.3,-2.37,-3.63,-3.75,0,*56
1513033367.36,19781,5.0,72038.0,-2.35,-3.59,-3.71,0,*58
1513033368.62,19782,5.0,72030.3,-2.37,-3.55,-3.75,0,*51
1513033369.88,19783,5.0,72018.5,-2.37,-3.55,-3.67,0,*53
1513033371.13,19784,5.0,72012.5,-2.37,-3.55,-3.75,0,*57
1513033372.39,19785,5.0,71998.0,-2.37,-3.55,-3.75,0,*56
1513033373.65,19786,5.0,72006.8,-2.37,-3.55,-3.67,0,*56
1513033374.91,19787,5.0,72008.8,-2.37,-3.55,-3.75,0,*54
1513033376.16,19788,5.0,72010.8,-2.37,-3.55,-3.75,0,*5B
1513033377.43,19789,5.0,72016.5,-2.37,-3.55,-3.67,0,*59
1513033378.68,19790,5.0,72020.3,-2.37,-3.55,-3.75,0,*52
1513033379.92,19791,5.0,72000.0,-2.35,-3.51,-3.63,0,*52
1513033381.17,19792,5.0,71994.3,-2.37,-3.55,-3.75,0,*50
1513033382.44,19793,5.0,71976.8,-2.37,-3.63,-3.67,0,*57
1513033383.71,19794,5.0,71986.0,-2.37,-3.55,-3.67,0,*55
1513033384.98,19795,5.0,71984.8,-2.37,-3.55,-3.67,0,*54
1513033386.25,19796,5.0,71982.0,-2.37,-3.63,-3.67,0,*52
1513033387.5,19797,5.0,72010.3,-2.37,-3.43,-3.75,0,*52
1513033388.78,19798,5.0,72022.8,-2.37,-3.51,-3.67,0,*5D
1513033390.04,19799,5.0,71998.5,-2.37,-3.55,-3.67,0,*58
1513033391.29,19800,5.0,71974.5,-2.39,-3.59,-3.71,0,*52
1513033392.54,19801,5.0,71968.5,-2.39,-3.59,-3.71,0,*53
1513033393.81,19802,5.0,71998.3,-2.37,-3.51,-3.63,0,*55
1513033395.06,19803,5.0,72008.3,-2.37,-3.39,-3.51,0,*5B
1513033396.31,19804,5.0,71984.0,-2.37,-3.39,-3.51,0,*5C
1513033397.58,19805,5.0,71980.0,-2.37,-3.43,-3.55,0,*54
1513033398.85,19806,5.0,71968.3,-2.37,-3.51,-3.67,0,*55
1513033400.12,19807,5.0,71960.8,-2.37,-3.63,-3.67,0,*55
1513033401.38,19808,5.0,71984.5,-2.37,-3.63,-3.75,0,*59
1513033402.64,19809,5.0,71952.3,-2.37,-3.55,-3.63,0,*5A
1513033403.9,19810,5.0,71964.0,-2.37,-3.63,-3.79,0,*5C
1513033405.17,19811,5.0,71980.0,-2.37,-3.55,-3.67,0,*57
1513033406.42,19812,5.0,72008.8,-2.39,-3.59,-3.71,0,*51
1513033407.66,19813,5.0,72004.3,-2.39,-3.59,-3.71,0,*50
1513033408.91,19814,5.0,72034.3,-2.35,-3.47,-3.71,0,*54
1513033410.16,19815,5.0,72008.0,-2.37,-3.51,-3.75,0,*54
1513033411.43,19816,5.0,71990.3,-2.37,-3.43,-3.63,0,*53
1513033412.68,19817,5.0,72008.3,-2.37,-3.39,-3.43,0,*5D
1513033413.93,19818,5.0,72022.8,-2.37,-3.39,-3.51,0,*51
1513033415.18,19819,5.0,72014.5,-2.37,-3.39,-3.55,0,*54
1513033416.44,19820,5.0,72012.5,-2.37,-3.43,-3.55,0,*53
1513033417.71,19821,5.0,72016.5,-2.37,-3.43,-3.55,0,*52
1513033418.98,19822,5.0,72000.8,-2.37,-3.43,-3.55,0,*51
1513033420.25,19823,5.0,71980.8,-2.37,-3.43,-3.63,0,*55
1513033421.52,19824,5.0,71976.0,-2.37,-3.51,-3.67,0,*55
1513033422.77,19825,5.0,71986.0,-2.37,-3.55,-3.75,0,*53
1513033424.02,19826,5.0,71990.5,-2.37,-3.55,-3.75,0,*50
1513033425.27,19827,5.0,72002.0,-2.35,-3.51,-3.59,0,*59
1513033426.49,19828,5.0,71990.5,-2.35,-3.39,-3.63,0,*51
1513033427.76,19829,5.0,71956.5,-2.37,-3.43,-3.63,0,*5F
1513033429.03,19830,5.0,71896.5,-2.37,-3.43,-3.63,0,*57
1513033430.3,19831,5.0,71920.8,-2.37,-3.43,-3.55,0,*53
1513033431.57,19832,5.0,71954.5,-2.37,-3.43,-3.63,0,*55
1513033432.85,19833,5.0,71954.3,-2.37,-3.51,-3.59,0,*5E
1513033434.11,19834,5.0,71938.5,-2.37,-3.43,-3.63,0,*53
1513033435.39,19835,5.0,71976.8,-2.37,-3.51,-3.63,0,*51
1513033436.66,19836,5.0,71986.3,-2.37,-3.51,-3.67,0,*56
1513033437.9,19837,5.0,71986.5,-2.35,-3.51,-3.63,0,*51
1513033439.15,19838,5.0,71976.0,-2.35,-3.47,-3.59,0,*50
1513033440.42,19839,5.0,72000.0,-2.37,-3.43,-3.63,0,*5E
1513033441.65,19840,5.0,72008.8,-2.35,-3.39,-3.59,0,*56
1513033442.92,19841,5.0,71938.3,-2.37,-3.43,-3.51,0,*50
1513033444.14,19842,5.0,71920.5,-2.35,-3.39,-3.59,0,*54
1513033445.41,19843,5.0,71944.8,-2.37,-3.51,-3.63,0,*50
1513033446.68,19844,5.0,71922.3,-2.37,-3.43,-3.63,0,*54
1513033447.96,19845,5.0,71922.8,-2.37,-3.51,-3.59,0,*5F
1513033449.23,19846,5.0,71952.3,-2.37,-3.43,-3.67,0,*52
1513033450.48,19847,5.0,71982.3,-2.37,-3.51,-3.75,0,*53
1513033451.75,19848,5.0,72024.5,-2.37,-3.43,-3.67,0,*5C
1513033453.0,19849,5.0,71970.8,-2.35,-3.51,-3.51,0,*59
1513033454.25,19850,5.0,71950.3,-2.35,-3.47,-3.59,0,*5E
1513033455.52,19851,5.0,71980.0,-2.37,-3.43,-3.55,0,*55
1513033456.79,19852,5.0,71980.3,-2.37,-3.51,-3.63,0,*50
1513033458.04,19853,5.0,71974.5,-2.37,-3.63,-3.75,0,*57
1513033459.3,19854,5.0,71990.0,-2.37,-3.55,-3.75,0,*55
1513033460.55,19855,5.0,71984.8,-2.37,-3.55,-3.75,0,*54
1513033461.8,19856,5.0,71994.0,-2.37,-3.55,-3.75,0,*57
1513033463.07,19857,5.0,71976.5,-2.37,-3.55,-3.67,0,*55
1513033464.32,19858,5.0,71974.5,-2.37,-3.55,-3.75,0,*59
1513033465.57,19859,5.0,71962.5,-2.37,-3.63,-3.75,0,*5D
1513033466.83,19860,5.0,71922.5,-2.37,-3.63,-3.75,0,*57
1513033468.09,19861,5.0,71900.3,-2.37,-3.63,-3.75,0,*56
1513033469.34,19862,5.0,71890.8,-2.37,-3.63,-3.79,0,*59
1513033470.57,19863,5.0,71828.8,-2.37,-3.75,-3.79,0,*5F
1513033471.8,19864,5.0,71816.5,-2.35,-3.63,-3.83,0,*58
1513033473.05,19865,5.0,71916.5,-2.35,-3.59,-3.71,0,*5D
1513033474.29,19866,5.0,71970.5,-2.35,-3.47,-3.71,0,*51
1513033475.56,19867,5.0,71962.8,-2.37,-3.55,-3.67,0,*56
1513033476.82,19868,5.0,71924.3,-2.37,-3.55,-3.67,0,*59
1513033478.09,19869,5.0,71958.3,-2.37,-3.55,-3.67,0,*58
1513033479.35,19870,5.0,71950.0,-2.37,-3.51,-3.75,0,*57
1513033480.6,19871,5.0,71936.8,-2.37,-3.51,-3.75,0,*56
1513033481.86,19872,5.0,71954.8,-2.37,-3.51,-3.75,0,*55
1513033483.1,19873,5.0,71960.8,-2.39,-3.55,-3.71,0,*5A
1513033484.35,19874,5.0,71962.5,-2.39,-3.59,-3.71,0,*51
1513033485.62,19875,5.0,72000.5,-2.37,-3.55,-3.67,0,*55
1513033486.84,19876,5.0,71950.3,-2.35,-3.39,-3.59,0,*53
1513033488.11,19877,5.0,71880.8,-2.37,-3.51,-3.55,0,*52
1513033489.38,19878,5.0,71864.0,-2.37,-3.51,-3.63,0,*58
1513033490.61,19879,5.0,71922.8,-2.35,-3.39,-3.59,0,*5C
1513033491.86,19880,5.0,71966.5,-2.35,-3.43,-3.59,0,*57
1513033493.13,19881,5.0,71972.0,-2.37,-3.43,-3.63,0,*5D
1513033494.35,19882,5.0,71964.5,-2.35,-3.39,-3.59,0,*58
1513033495.6,19883,5.0,71930.3,-2.37,-3.31,-3.55,0,*5F
1513033496.82,19884,5.0,71986.5,-2.35,-3.35,-3.47,0,*5D
1513033498.07,19885,5.0,71950.0,-2.37,-3.31,-3.43,0,*5E
1513033499.28,19886,5.0,71978.3,-2.35,-3.23,-3.47,0,*58
1513033500.48,19887,5.0,72000.0,-2.35,-3.15,-3.35,0,*59
1513033501.68,19888,5.0,71956.8,-2.35,-3.23,-3.35,0,*53
1513033502.87,19889,5.0,71932.0,-2.35,-3.15,-3.23,0,*50
1513033504.07,19890,5.0,71948.3,-2.35,-3.11,-3.27,0,*58
1513033505.28,19891,5.0,71972.3,-2.35,-3.15,-3.27,0,*5D
1513033506.48,19892,5.0,71964.8,-2.35,-3.15,-3.27,0,*5E
1513033507.68,19893,5.0,71978.3,-2.35,-3.15,-3.35,0,*5C
1513033508.89,19894,5.0,72000.3,-2.35,-3.15,-3.27,0,*58
1513033510.09,19895,5.0,71996.3,-2.35,-3.15,-3.27,0,*59
1513033511.32,19896,5.0,71978.3,-2.33,-3.23,-3.27,0,*59
1513033512.55,19897,5.0,71964.8,-2.33,-3.15,-3.27,0,*5D
1513033513.75,19898,5.0,71972.5,-2.35,-3.15,-3.35,0,*57
1513033514.97,19899,5.0,71950.0,-2.33,-3.23,-3.35,0,*55
1513033516.19,19900,5.0,71980.5,-2.33,-3.23,-3.35,0,*54
1513033517.42,19901,5.0,72026.5,-2.33,-3.15,-3.27,0,*53
1513033518.65,19902,5.0,72014.3,-2.33,-3.15,-3.35,0,*53
1513033519.85,19903,5.0,71980.8,-2.31,-3.11,-3.31,0,*50
1513033521.07,19904,5.0,71972.8,-2.33,-3.15,-3.35,0,*55
1513033522.27,19905,5.0,71938.8,-2.31,-3.19,-3.31,0,*5E
1513033523.49,19906,5.0,71936.8,-2.31,-3.23,-3.43,0,*51
1513033524.74,19907,5.0,71940.0,-2.33,-3.27,-3.47,0,*52
1513033525.96,19908,5.0,71946.5,-2.31,-3.35,-3.55,0,*5F
1513033527.21,19909,5.0,71950.5,-2.31,-3.43,-3.59,0,*53
1513033528.46,19910,5.0,71942.5,-2.31,-3.43,-3.59,0,*5B
1513033529.71,19911,5.0,71938.0,-2.31,-3.43,-3.59,0,*5A
1513033530.96,19912,5.0,71944.5,-2.33,-3.39,-3.59,0,*56
1513033532.23,19913,5.0,71944.3,-2.33,-3.47,-3.71,0,*54
1513033533.48,19914,5.0,71954.5,-2.31,-3.43,-3.59,0,*5F
1513033534.76,19915,5.0,71954.0,-2.33,-3.47,-3.59,0,*58
1513033536.01,19916,5.0,71966.3,-2.31,-3.43,-3.67,0,*50
1513033537.26,19917,5.0,71998.5,-2.31,-3.47,-3.59,0,*58
1513033538.53,19918,5.0,71914.8,-2.33,-3.47,-3.63,0,*5C
1513033539.78,19919,5.0,71830.3,-2.33,-3.39,-3.51,0,*55
1513033541.0,19920,5.0,71832.3,-2.31,-3.35,-3.43,0,*52
1513033542.25,19921,5.0,71828.3,-2.33,-3.35,-3.47,0,*55
1513033543.49,19922,5.0,71814.0,-2.33,-3.35,-3.47,0,*56
1513033544.72,19923,5.0,71806.3,-2.31,-3.35,-3.55,0,*56
1513033545.99,19924,5.0,71792.0,-2.33,-3.47,-3.59,0,*5A
1513033547.24,19925,5.0,71802.3,-2.31,-3.43,-3.67,0,*50
1513033548.51,19926,5.0,71818.8,-2.33,-3.51,-3.71,0,*55
1513033549.78,19927,5.0,71814.3,-2.33,-3.47,-3.63,0,*50
1513033551.05,19928,5.0,71784.8,-2.33,-3.51,-3.71,0,*5B
1513033552.29,19929,5.0,71830.8,-2.31,-3.55,-3.71,0,*5C
1513033553.54,19930,5.0,71814.0,-2.33,-3.59,-3.83,0,*57
1513033554.77,19931,5.0,71786.3,-2.35,-3.63,-3.83,0,*59
1513033556.02,19932,5.0,71768.0,-2.33,-3.63,-3.87,0,*58
1513033557.27,19933,5.0,71796.5,-2.33,-3.63,-3.87,0,*59
1513033558.52,19934,5.0,71794.3,-2.33,-3.71,-3.87,0,*5D
1513033559.77,19935,5.0,71822.5,-2.33,-3.63,-3.75,0,*52
1513033561.02,19936,5.0,71802.0,-2.33,-3.63,-3.83,0,*58
1513033562.27,19937,5.0,71796.8,-2.33,-3.63,-3.83,0,*59
1513033563.52,19938,5.0,71812.5,-2.33,-3.71,-3.83,0,*55
1513033564.75,19939,5.0,71796.0,-2.31,-3.59,-3.79,0,*59
1513033566.0,19940,5.0,71830.3,-2.33,-3.71,-3.83,0,*5A
1513033567.25,19941,5.0,71832.8,-2.33,-3.63,-3.83,0,*58
1513033568.5,19942,5.0,71838.8,-2.33,-3.71,-3.83,0,*58
1513033569.75,19943,5.0,71832.3,-2.33,-3.63,-3.87,0,*5E
1513033570.98,19944,5.0,71824.0,-2.33,-3.75,-3.95,0,*5D
1513033572.19,19945,5.0,71800.0,-2.35,-3.75,-3.87,0,*59
1513033573.45,19946,5.0,71838.3,-2.37,-3.79,-4.01,0,*5D
1513033574.68,19947,5.0,71836.3,-2.37,-3.87,-3.91,0,*53
1513033575.93,19948,5.0,71866.0,-2.37,-3.75,-4.01,0,*5F
1513033577.17,19949,5.0,71898.0,-2.37,-3.75,-3.91,0,*50
1513033578.39,19950,5.0,71888.8,-2.35,-3.71,-3.87,0,*59
1513033579.61,19951,5.0,71910.8,-2.35,-3.71,-3.87,0,*58
1513033580.85,19952,5.0,71912.0,-2.37,-3.75,-3.91,0,*5A
1513033582.07,19953,5.0,71908.3,-2.35,-3.71,-3.87,0,*5A
1513033583.29,19954,5.0,71932.8,-2.35,-3.71,-3.87,0,*5D
1513033584.51,19955,5.0,71936.8,-2.35,-3.71,-3.87,0,*5C
1513033585.74,19956,5.0,71938.0,-2.35,-3.71,-3.87,0,*5F
1513033586.97,19957,5.0,71932.0,-2.37,-3.79,-3.91,0,*53
1513033588.21,19958,5.0,71930.3,-2.37,-3.75,-3.91,0,*50
1513033589.44,19959,5.0,71928.8,-2.37,-3.75,-3.91,0,*51
1513033590.68,19960,5.0,71944.3,-2.37,-3.75,-3.91,0,*5B
1513033591.93,19961,5.0,71936.5,-2.37,-3.67,-3.91,0,*59
1513033593.19,19962,5.0,71874.3,-2.37,-3.67,-3.79,0,*5C
1513033594.44,19963,5.0,71970.3,-2.37,-3.63,-3.87,0,*58
1513033595.69,19964,5.0,71978.5,-2.37,-3.55,-3.79,0,*5B
1513033596.94,19965,5.0,71974.3,-2.37,-3.55,-3.87,0,*5B
1513033598.16,19966,5.0,71934.3,-2.35,-3.51,-3.75,0,*53
1513033599.42,19967,5.0,71924.3,-2.37,-3.55,-3.79,0,*58
1513033600.67,19968,5.0,71944.0,-2.37,-3.55,-3.75,0,*5B
1513033601.94,19969,5.0,71918.0,-2.37,-3.43,-3.63,0,*5A
1513033603.21,19970,5.0,71936.3,-2.37,-3.51,-3.67,0,*55
1513033604.46,19971,5.0,71922.5,-2.37,-3.43,-3.75,0,*54
1513033605.73,19972,5.0,71934.0,-2.37,-3.51,-3.63,0,*53
1513033607.0,19973,5.0,71944.0,-2.37,-3.51,-3.67,0,*56
1513033608.24,19974,5.0,71962.5,-2.35,-3.55,-3.63,0,*53
1513033609.47,19975,5.0,71942.8,-2.35,-3.51,-3.75,0,*51
1513033610.72,19976,5.0,71962.5,-2.35,-3.47,-3.63,0,*52
1513033611.97,19977,5.0,71986.8,-2.37,-3.51,-3.75,0,*51
1513033613.21,19978,5.0,71990.3,-2.35,-3.47,-3.63,0,*5C
1513033614.46,19979,5.0,71968.0,-2.37,-3.39,-3.67,0,*52
1513033615.68,19980,5.0,71914.3,-2.35,-3.39,-3.63,0,*52
1513033616.9,19981,5.0,71876.5,-2.35,-3.35,-3.51,0,*5E
1513033618.15,19982,5.0,71962.5,-2.37,-3.31,-3.55,0,*5F
1513033619.42,19983,5.0,71934.5,-2.37,-3.43,-3.63,0,*5E
1513033620.64,19984,5.0,71972.0,-2.35,-3.27,-3.47,0,*5F
1513033621.86,19985,5.0,71970.3,-2.35,-3.31,-3.51,0,*5E
1513033623.11,19986,5.0,71862.5,-2.37,-3.39,-3.63,0,*56
1513033624.35,19987,5.0,71932.8,-2.37,-3.39,-3.55,0,*52
1513033625.6,19988,5.0,71892.3,-2.37,-3.39,-3.55,0,*5D
1513033626.82,19989,5.0,71896.5,-2.35,-3.35,-3.51,0,*56
1513033628.04,19990,5.0,71918.5,-2.35,-3.39,-3.51,0,*52
1513033629.31,19991,5.0,71984.0,-2.33,-3.47,-3.63,0,*5D
1513033630.56,19992,5.0,71970.8,-2.35,-3.47,-3.63,0,*58
1513033631.78,19993,5.0,71966.3,-2.35,-3.39,-3.51,0,*51
1513033633.0,19994,5.0,71986.3,-2.35,-3.35,-3.47,0,*5D
1513033634.22,19995,5.0,71964.3,-2.35,-3.27,-3.51,0,*58
1513033635.45,19996,5.0,71956.0,-2.35,-3.27,-3.51,0,*5B
1513033636.67,19997,5.0,71950.8,-2.35,-3.35,-3.51,0,*59
1513033637.91,19998,5.0,71918.0,-2.35,-3.47,-3.71,0,*51
1513033639.14,19999,5.0,71888.0,-2.35,-3.47,-3.75,0,*54
1513033640.37,20000,5.0,71882.5,-2.35,-3.59,-3.75,0,*58
1513033641.6,20001,5.0,71876.8,-2.35,-3.51,-3.75,0,*51
1513033642.82,20002,5.0,71876.8,-2.35,-3.51,-3.83,0,*5B
1513033644.08,20003,5.0,71890.5,-2.37,-3.63,-3.79,0,*5C
1513033645.35,20004,5.0,71902.5,-2.33,-3.51,-3.71,0,*56
1513033646.62,20005,5.0,71888.5,-2.33,-3.51,-3.71,0,*57
1513033647.89,20006,5.0,71898.3,-2.33,-3.51,-3.71,0,*54
1513033649.14,20007,5.0,71918.8,-2.33,-3.51,-3.83,0,*58
1513033650.39,20008,5.0,71928.8,-2.33,-3.51,-3.75,0,*5E
1513033651.65,20009,5.0,71960.5,-2.33,-3.59,-3.75,0,*57
1513033652.87,20010,5.0,71934.0,-2.35,-3.59,-3.83,0,*50
1513033654.1,20011,5.0,71922.8,-2.35,-3.51,-3.75,0,*50
1513033655.33,20012,5.0,71952.0,-2.35,-3.51,-3.75,0,*53
1513033656.55,20013,5.0,71888.8,-2.35,-3.39,-3.59,0,*52
1513033657.77,20014,5.0,71912.3,-2.35,-3.23,-3.51,0,*56
1513033659.0,20015,5.0,71958.8,-2.35,-3.35,-3.59,0,*58
1513033660.24,20016,5.0,71892.5,-2.33,-3.27,-3.47,0,*51
1513033661.45,20017,5.0,71788.8,-2.31,-3.11,-3.27,0,*51
1513033662.67,20018,5.0,71732.3,-2.33,-2.83,-2.99,0,*52
1513033663.9,20019,5.0,71740.3,-2.33,-2.95,-3.11,0,*55
1513033665.11,20020,5.0,71800.8,-2.31,-2.95,-3.19,0,*55
1513033666.3,20021,5.0,71862.0,-2.31,-3.07,-3.31,0,*54
1513033667.51,20022,5.0,71890.5,-2.31,-3.15,-3.35,0,*50
1513033668.71,20023,5.0,71904.0,-2.31,-2.95,-3.19,0,*56
1513033669.93,20024,5.0,71950.3,-2.29,-3.03,-3.19,0,*56
1513033671.12,20025,5.0,71928.0,-2.31,-3.03,-3.23,0,*57
1513033672.32,20026,5.0,71942.5,-2.31,-3.11,-3.23,0,*57
1513033673.51,20027,5.0,71958.0,-2.31,-3.07,-3.23,0,*51
1513033674.74,20028,5.0,71948.0,-2.31,-3.19,-3.43,0,*57
1513033675.95,20029,5.0,71966.0,-2.31,-3.23,-3.43,0,*5F
1513033677.18,20030,5.0,71920.3,-2.31,-3.19,-3.43,0,*5E
1513033678.42,20031,5.0,71944.0,-2.29,-3.31,-3.55,0,*5B
1513033679.64,20032,5.0,71966.8,-2.31,-3.23,-3.55,0,*52
1513033680.86,20033,5.0,71974.3,-2.31,-3.35,-3.55,0,*54
1513033682.1,20034,5.0,71948.8,-2.29,-3.35,-3.55,0,*5A
1513033683.34,20035,5.0,71932.0,-2.29,-3.23,-3.47,0,*5F
1513033684.57,20036,5.0,71946.8,-2.29,-3.23,-3.47,0,*5C
1513033685.81,20037,5.0,71922.5,-2.29,-3.23,-3.47,0,*5D
1513033687.06,20038,5.0,71952.5,-2.29,-3.35,-3.67,0,*57
1513033688.31,20039,5.0,71966.3,-2.29,-3.35,-3.59,0,*5B
1513033689.52,20040,5.0,71974.5,-2.27,-3.39,-3.63,0,*5E
1513033690.77,20041,5.0,71976.5,-2.29,-3.35,-3.59,0,*54
1513033692.02,20042,5.0,71948.5,-2.29,-3.35,-3.67,0,*5A
1513033693.27,20043,5.0,71918.8,-2.29,-3.31,-3.59,0,*52
1513033694.49,20044,5.0,71936.3,-2.27,-3.27,-3.55,0,*50
1513033695.71,20045,5.0,71952.3,-2.27,-3.31,-3.63,0,*53
1513033696.95,20046,5.0,71962.0,-2.27,-3.43,-3.67,0,*51
1513033698.2,20047,5.0,71948.0,-2.29,-3.55,-3.79,0,*56
1513033699.45,20048,5.0,71954.8,-2.29,-3.59,-3.79,0,*55
1513033700.68,20049,5.0,71906.0,-2.23,-3.55,-3.75,0,*5E
1513033701.92,20050,5.0,71900.8,-2.29,-3.59,-3.83,0,*59
1513033703.17,20051,5.0,71936.5,-2.29,-3.59,-3.83,0,*58
1513033704.42,20052,5.0,71888.5,-2.29,-3.59,-3.83,0,*5B
1513033705.67,20053,5.0,71916.0,-2.29,-3.67,-3.83,0,*57
1513033706.91,20054,5.0,71898.3,-2.29,-3.55,-3.83,0,*51
1513033708.15,20055,5.0,71864.8,-2.31,-3.59,-3.79,0,*50
1513033709.37,20056,5.0,71872.0,-2.31,-3.55,-3.79,0,*5F
1513033710.6,20057,5.0,71922.0,-2.31,-3.59,-3.83,0,*57
1513033711.83,20058,5.0,71918.5,-2.31,-3.59,-3.83,0,*58
1513033713.06,20059,5.0,71854.3,-2.31,-3.59,-3.83,0,*59
1513033714.29,20060,5.0,71840.5,-2.31,-3.67,-3.83,0,*5E
1513033715.51,20061,5.0,71858.5,-2.31,-3.59,-3.83,0,*52
1513033716.75,20062,5.0,71862.0,-2.31,-3.59,-3.91,0,*52
1513033717.97,20063,5.0,71852.5,-2.31,-3.59,-3.83,0,*50
1513033719.2,20064,5.0,71950.0,-2.31,-3.55,-3.79,0,*5E
1513033720.45,20065,5.0,71912.0,-2.33,-3.39,-3.71,0,*5F
1513033721.68,20066,5.0,71864.8,-2.31,-3.31,-3.59,0,*5C
1513033722.91,20067,5.0,71882.3,-2.29,-3.23,-3.55,0,*5B
1513033724.15,20068,5.0,71898.8,-2.29,-3.23,-3.47,0,*57
1513033725.4,20069,5.0,71890.5,-2.29,-3.31,-3.43,0,*51
1513033726.63,20070,5.0,71956.3,-2.29,-3.23,-3.47,0,*5E
1513033727.85,20071,5.0,71918.5,-2.29,-2.91,-3.11,0,*54
1513033729.07,20072,5.0,71908.5,-2.29,-2.83,-3.03,0,*57
1513033730.31,20073,5.0,71930.8,-2.29,-2.71,-2.91,0,*51
1513033731.51,20074,5.0,71958.0,-2.27,-2.79,-3.03,0,*5A
1513033732.71,20075,5.0,71952.8,-2.27,-2.79,-3.03,0,*5B